�������l�o���
Date,Time,MP-1(��Sv/h),MP-2(��Sv/h),MP-3(��Sv/h),MP-4(��Sv/h),MP-5(��Sv/h),MP-6(��Sv/h),MP-7(��Sv/h),����,����(m/s),���J
2015/02/13,00:00,0.538,0.327,0.555,-,0.527,0.256,0.229,�k,1.9,��
2015/02/13,00:10,0.536,0.328,0.555,-,0.527,0.256,0.230,�k,1.2,��
2015/02/13,00:20,0.536,0.328,0.553,-,0.527,0.254,0.229,�k,1.1,��
2015/02/13,00:30,0.537,0.327,0.554,-,0.529,0.257,0.229,�k�k��,0.8,��
2015/02/13,00:40,0.535,0.327,0.556,-,0.530,0.257,0.229,�k�k��,0.8,��
2015/02/13,00:50,0.537,0.327,0.555,-,0.528,0.256,0.229,�k�k��,0.9,��
2015/02/13,01:00,0.537,0.329,0.552,-,0.527,0.256,0.229,�k�k��,0.6,��
2015/02/13,01:10,0.537,0.328,0.554,-,0.528,0.256,0.229,�k,0.7,��
2015/02/13,01:20,0.536,0.327,0.556,-,0.529,0.257,0.230,�k��,0.7,��
2015/02/13,01:30,0.537,0.328,0.555,-,0.528,0.257,0.230,���쐼,0.7,��
2015/02/13,01:40,0.535,0.327,0.555,-,0.526,0.255,0.230,-,CALM,��
2015/02/13,01:50,0.537,0.328,0.555,-,0.529,0.255,0.230,-,CALM,��
2015/02/13,02:00,0.535,0.327,0.555,-,0.528,0.256,0.229,-,CALM,��
2015/02/13,02:10,0.536,0.328,0.554,-,0.526,0.256,0.230,-,CALM,��
2015/02/13,02:20,0.534,0.328,0.556,-,0.527,0.256,0.229,-,CALM,��
2015/02/13,02:30,0.535,0.329,0.554,-,0.527,0.256,0.230,��쐼,1.3,��
2015/02/13,02:40,0.535,0.329,0.554,-,0.529,0.256,0.229,�쐼,2.2,��
2015/02/13,02:50,0.536,0.328,0.554,-,0.528,0.255,0.229,�쐼,2.1,��
2015/02/13,03:00,0.537,0.327,0.556,-,0.526,0.255,0.230,��쐼,0.6,��
2015/02/13,03:10,0.537,0.329,0.553,-,0.528,0.256,0.230,��쐼,1.7,��
2015/02/13,03:20,0.538,0.327,0.553,-,0.529,0.256,0.229,�쐼,2.4,��
2015/02/13,03:30,0.538,0.328,0.556,-,0.529,0.256,0.229,���k��,2.0,��
2015/02/13,03:40,0.537,0.327,0.556,-,0.528,0.255,0.230,��,2.2,��
2015/02/13,03:50,0.535,0.327,0.554,-,0.530,0.255,0.229,���쐼,2.0,��
2015/02/13,04:00,0.537,0.328,0.555,-,0.529,0.257,0.230,���쐼,2.4,��
2015/02/13,04:10,0.538,0.329,0.552,-,0.529,0.257,0.230,���k��,2.6,��
2015/02/13,04:20,0.535,0.329,0.557,-,0.527,0.255,0.229,��,2.6,��
2015/02/13,04:30,0.537,0.329,0.554,-,0.529,0.256,0.229,���k��,3.3,��
2015/02/13,04:40,0.535,0.328,0.553,-,0.529,0.256,0.229,���k��,8.5,��
2015/02/13,04:50,0.537,0.328,0.554,-,0.529,0.255,0.229,���k��,10.8,��
2015/02/13,05:00,0.535,0.329,0.556,-,0.529,0.257,0.228,���k��,10.5,��
2015/02/13,05:10,0.538,0.328,0.556,-,0.530,0.256,0.229,���k��,11.7,��
2015/02/13,05:20,0.539,0.329,0.555,-,0.531,0.257,0.229,���k��,10.5,��
2015/02/13,05:30,0.540,0.331,0.556,-,0.530,0.258,0.230,���k��,9.9,��
2015/02/13,05:40,0.540,0.331,0.560,-,0.530,0.259,0.231,���k��,7.6,��
2015/02/13,05:50,0.539,0.330,0.557,-,0.532,0.257,0.231,�k��,5.2,��
2015/02/13,06:00,0.541,0.329,0.556,-,0.532,0.257,0.230,���k��,5.7,��
2015/02/13,06:10,0.541,0.330,0.556,-,0.531,0.258,0.230,���k��,7.7,��
2015/02/13,06:20,0.541,0.329,0.559,-,0.530,0.259,0.230,���k��,5.7,��
2015/02/13,06:30,0.539,0.330,0.559,-,0.530,0.258,0.229,�k��,3.2,��
2015/02/13,06:40,0.540,0.330,0.558,-,0.533,0.257,0.230,�k��,4.0,��
2015/02/13,06:50,0.541,0.329,0.558,-,0.533,0.257,0.230,�k��,6.2,��
2015/02/13,07:00,0.539,0.330,0.558,-,0.530,0.258,0.231,���k��,7.3,��
2015/02/13,07:10,0.540,0.331,0.560,-,0.530,0.258,0.229,���k��,6.4,��
2015/02/13,07:20,0.540,0.329,0.558,-,0.531,0.257,0.231,��,7.5,��
2015/02/13,07:30,0.542,0.330,0.556,-,0.531,0.257,0.230,���k��,7.0,��
2015/02/13,07:40,0.540,0.330,0.555,-,0.532,0.256,0.230,���k��,7.0,��
2015/02/13,07:50,0.539,0.330,0.557,-,0.530,0.257,0.230,���k��,8.6,��
2015/02/13,08:00,0.540,0.329,0.559,-,0.532,0.257,0.230,�k��,3.7,��
2015/02/13,08:10,0.541,0.329,0.556,-,0.531,0.257,0.231,�k�k��,3.8,��
2015/02/13,08:20,0.540,0.329,0.557,-,0.534,0.257,0.230,���k��,10.0,��
2015/02/13,08:30,0.538,0.329,0.556,-,0.529,0.256,0.229,��,10.7,��
2015/02/13,08:40,0.541,0.329,0.558,-,0.531,0.257,0.229,�k��,5.5,��
2015/02/13,08:50,0.541,0.328,0.557,-,0.532,0.256,0.230,���k��,8.6,��
2015/02/13,09:00,0.540,0.328,0.558,-,0.533,0.257,0.228,���k��,4.0,��
2015/02/13,09:10,0.539,0.328,0.557,-,0.530,0.258,0.229,��,11.1,��
2015/02/13,09:20,0.541,0.330,0.559,-,0.531,0.257,0.229,���k��,10.2,��
2015/02/13,09:30,0.540,0.329,0.558,-,0.531,0.257,0.231,�k��,6.4,��
2015/02/13,09:40,0.540,0.327,0.558,-,0.535,0.257,0.230,�k�k��,3.7,��
2015/02/13,09:50,0.539,0.329,0.558,-,0.533,0.258,0.229,���k��,8.1,��
2015/02/13,10:00,0.541,0.330,0.558,-,0.532,0.258,0.229,���k��,8.1,��
2015/02/13,10:10,0.538,0.329,0.559,-,0.532,0.258,0.229,��,14.9,��
2015/02/13,10:20,0.538,0.328,0.556,-,0.533,0.257,0.231,��,7.6,��
2015/02/13,10:30,0.541,0.329,0.557,-,0.531,0.257,0.229,��,11.1,��
2015/02/13,10:40,0.539,0.329,0.558,-,0.534,0.257,0.230,��,9.1,��
2015/02/13,10:50,0.540,0.329,0.560,-,0.533,0.257,0.230,��,9.8,��
2015/02/13,11:00,0.540,0.330,0.558,-,0.531,0.257,0.230,��,7.5,��
2015/02/13,11:10,0.539,0.332,0.557,-,0.534,0.257,0.231,���k��,8.2,��
2015/02/13,11:20,0.540,0.329,0.558,-,0.531,0.258,0.229,���k��,8.1,��
2015/02/13,11:30,0.540,0.330,0.556,-,0.532,0.257,0.231,��,10.3,��
2015/02/13,11:40,0.539,0.331,0.556,-,0.534,0.257,0.230,��,10.6,��
2015/02/13,11:50,0.542,0.330,0.559,-,0.533,0.258,0.231,��,7.9,��
2015/02/13,12:00,0.540,0.330,0.556,-,0.537,0.258,0.230,���k��,5.9,��
2015/02/13,12:10,0.538,0.330,0.555,-,0.533,0.258,0.231,��,9.7,��
2015/02/13,12:20,0.541,0.330,0.559,-,0.533,0.258,0.230,��,7.8,��
2015/02/13,12:30,0.538,0.333,0.556,-,0.535,0.257,0.230,��,10.1,��
2015/02/13,12:40,0.542,0.330,0.556,-,0.533,0.258,0.230,��,8.7,��
2015/02/13,12:50,0.541,0.329,0.560,-,0.537,0.257,0.231,��,10.5,��
2015/02/13,13:00,0.541,0.331,0.557,-,0.534,0.257,0.230,��,6.5,��
2015/02/13,13:10,0.543,0.331,0.559,-,0.535,0.258,0.231,��,9.9,��
2015/02/13,13:20,0.545,0.329,0.560,-,0.537,0.257,0.230,���k��,9.0,��
2015/02/13,13:30,0.542,0.330,0.557,-,0.536,0.257,0.232,��,8.5,��
2015/02/13,13:40,0.542,0.331,0.561,-,0.538,0.257,0.230,���k��,6.8,��
2015/02/13,13:50,0.544,0.330,0.558,-,0.535,0.259,0.231,���k��,4.4,��
2015/02/13,14:00,0.544,0.331,0.560,-,0.536,0.257,0.231,���k��,4.2,��
2015/02/13,14:10,0.541,0.331,0.561,-,0.537,0.258,0.232,���k��,2.2,��
2015/02/13,14:20,0.545,0.331,0.558,-,0.534,0.259,0.231,�k��,4.6,��
2015/02/13,14:30,0.544,0.331,0.558,-,0.532,0.258,0.232,���k��,8.4,��
2015/02/13,14:40,0.541,0.332,0.561,-,0.534,0.257,0.233,��,5.2,��
2015/02/13,14:50,0.542,0.329,0.562,-,0.534,0.258,0.231,���k��,4.3,��
2015/02/13,15:00,0.542,0.329,0.561,-,0.534,0.256,0.232,���k��,4.8,��
2015/02/13,15:10,0.541,0.331,0.562,-,0.535,0.258,0.232,���k��,6.3,��
2015/02/13,15:20,0.542,0.332,0.561,-,0.534,0.259,0.231,�k��,9.5,��
2015/02/13,15:30,0.543,0.330,0.559,-,0.533,0.257,0.231,�k��,8.6,��
2015/02/13,15:40,0.543,0.332,0.560,-,0.534,0.258,0.231,���k��,6.2,��
2015/02/13,15:50,0.543,0.333,0.561,-,0.535,0.258,0.231,���k��,7.1,��
2015/02/13,16:00,0.541,0.332,0.561,-,0.534,0.257,0.231,�k��,6.2,��
2015/02/13,16:10,0.544,0.331,0.561,-,0.534,0.257,0.231,�k�k��,2.1,��
2015/02/13,16:20,0.543,0.332,0.560,-,0.533,0.257,0.232,�k�k��,1.2,��
2015/02/13,16:30,0.544,0.331,0.559,-,0.536,0.258,0.232,�k,2.3,��
2015/02/13,16:40,0.543,0.331,0.561,-,0.532,0.257,0.232,�k��,2.1,��
2015/02/13,16:50,0.541,0.331,0.559,-,0.534,0.258,0.230,�k,2.2,��
2015/02/13,17:00,0.543,0.332,0.560,-,0.533,0.257,0.232,�k,0.9,��
2015/02/13,17:10,0.542,0.331,0.560,-,0.534,0.258,0.232,���k��,1.5,��
2015/02/13,17:20,0.541,0.331,0.560,-,0.534,0.259,0.231,��,3.9,��
2015/02/13,17:30,0.542,0.332,0.560,-,0.535,0.258,0.231,�k�k��,2.5,��
2015/02/13,17:40,0.542,0.331,0.562,-,0.534,0.259,0.231,�k,2.8,��
2015/02/13,17:50,0.543,0.331,0.560,-,0.533,0.258,0.231,�k��,2.5,��
2015/02/13,18:00,0.541,0.332,0.562,-,0.533,0.259,0.231,�k,1.6,��
2015/02/13,18:10,0.544,0.332,0.560,-,0.535,0.258,0.232,���k��,0.6,��
2015/02/13,18:20,0.542,0.331,0.559,-,0.535,0.259,0.233,���k��,1.1,��
2015/02/13,18:30,0.541,0.331,0.562,-,0.534,0.257,0.233,�k�k��,0.6,��
2015/02/13,18:40,0.542,0.331,0.560,-,0.533,0.258,0.231,�쐼,0.6,��
2015/02/13,18:50,0.541,0.330,0.560,-,0.532,0.258,0.232,-,CALM,��
2015/02/13,19:00,0.540,0.332,0.559,-,0.534,0.258,0.232,��,2.1,��
2015/02/13,19:10,0.542,0.330,0.561,-,0.532,0.258,0.233,��쐼,1.4,��
2015/02/13,19:20,0.542,0.332,0.560,-,0.532,0.259,0.231,�k�k��,0.5,��
2015/02/13,19:30,0.541,0.332,0.561,-,0.535,0.258,0.232,�k��,0.7,��
2015/02/13,19:40,0.541,0.331,0.561,-,0.533,0.258,0.232,��,5.9,��
2015/02/13,19:50,0.541,0.332,0.561,-,0.533,0.258,0.232,���k��,5.0,��
2015/02/13,20:00,0.542,0.330,0.562,-,0.534,0.258,0.232,���k��,6.1,��
2015/02/13,20:10,0.541,0.331,0.560,-,0.534,0.258,0.232,���k��,3.3,��
2015/02/13,20:20,0.542,0.331,0.562,-,0.535,0.258,0.233,���k��,3.4,��
2015/02/13,20:30,0.541,0.331,0.559,-,0.533,0.258,0.232,��,7.6,��
2015/02/13,20:40,0.541,0.332,0.561,-,0.535,0.258,0.231,��,5.7,��
2015/02/13,20:50,0.542,0.331,0.559,-,0.535,0.258,0.232,�k�k��,3.6,��
2015/02/13,21:00,0.541,0.332,0.563,-,0.533,0.258,0.231,�k,1.6,��
2015/02/13,21:10,0.542,0.331,0.561,-,0.533,0.258,0.231,�k,3.0,��
2015/02/13,21:20,0.541,0.330,0.563,-,0.534,0.258,0.232,�k��,2.8,��
2015/02/13,21:30,0.540,0.332,0.562,-,0.534,0.259,0.232,�k��,6.4,��
2015/02/13,21:40,0.541,0.332,0.560,-,0.532,0.259,0.231,�k�k��,3.0,��
2015/02/13,21:50,0.541,0.332,0.562,-,0.535,0.258,0.232,�k��,2.2,��
2015/02/13,22:00,0.542,0.331,0.561,-,0.535,0.258,0.232,�k��,3.3,��
2015/02/13,22:10,0.540,0.329,0.563,-,0.534,0.259,0.233,�k�k��,2.7,��
2015/02/13,22:20,0.541,0.331,0.561,-,0.533,0.258,0.232,�k�k��,4.2,��
2015/02/13,22:30,0.540,0.332,0.561,-,0.534,0.258,0.231,�k�k��,2.4,��
2015/02/13,22:40,0.539,0.330,0.559,-,0.535,0.259,0.230,�k��,3.5,��
2015/02/13,22:50,0.542,0.330,0.561,-,0.533,0.258,0.231,�k�k��,3.3,��
2015/02/13,23:00,0.539,0.331,0.561,-,0.534,0.259,0.232,�k�k��,4.7,��
2015/02/13,23:10,0.542,0.330,0.562,-,0.533,0.258,0.232,�k�k��,2.9,��
2015/02/13,23:20,0.543,0.331,0.562,-,0.533,0.259,0.230,�k��,5.5,��
2015/02/13,23:30,0.542,0.331,0.560,-,0.536,0.259,0.232,�k,5.3,��
2015/02/13,23:40,0.542,0.330,0.563,-,0.535,0.257,0.231,�k,3.3,��
2015/02/13,23:50,0.543,0.330,0.561,-,0.534,0.258,0.232,�k��,4.4,��
